ARABSAT-7B (BADR-8)

Last updated on Fri Jul 11 2025 00:02:46 GMT+0000 (Coordinated Universal Time)

1 56757U 23075A 25190.84350495 .00000158 00000+0 00000+0 0 9994 2 56757 0.0729 29.8424 0003814 4.7820 223.0560 1.00271473 7691
UTC large
Height (km)
Speed (km/s)
/
Latitude / Longitude
Inclination (degrees)
Orbital Period (minutes)
Azimuth
Elevation
Range (km)
Doppler Factor

Next 0 passes for location: London (51.5072 / 0.1276)

Sorry there are no passes over London.